World > North America > United States > Michigan

Harbor Beach, Michigan Regional Weather

Lat: 43.85N, Lon: 82.65W
Wx Zone: MIZ049
Warning FLW WEATHER ALERT - (More Info. Click Here) Warning
Feedback

Harbor Beach, MI Regional Weather

Expires:201908201100;;510110
ASUS43 KDTX 201010
RWRMI 
MICHIGAN HOURLY REGIONAL WEATHER ROUNDUP
NATIONAL WEATHER SERVICE DETROIT/PONTIAC MI
600 AM EDT TUE AUG 20 2019

NOTE: "FAIR" INDICATES FEW OR NO CLOUDS BELOW 12,000 FEET WITH NO
SIGNIFICANT WEATHER AND/OR OBSTRUCTION TO VISIBILITY.


MIZ047>049-052>055-059>063-066>070-074>076-081>083-201100-
SOUTHEAST LOWER MICHIGAN
  
CITY           SKY/WX    TMP DP  RH WIND       PRES   REMARKS
ADRIAN         FAIR      66  64  93 CALM      30.07F                  
ALMA           FAIR      62  60  93 CALM      30.08S                  
ANN ARBOR      FAIR      66  65  96 CALM      30.06F                  
BAD AXE        FAIR      64  62  94 CALM      30.06S                  
CARO           MOCLDY    63  61  94 CALM      30.07S FOG              
DETROIT CITY   FAIR      73  32  22 CALM      30.06F                  
DETROIT        CLOUDY    72  69  90 CALM      30.07S FOG              
FLINT          LGT RAIN  70  67  90 CALM      30.07S                  
GROSSE ILE     CLOUDY    72  71  96 CALM      30.05F                  
HILLSDALE      FAIR      67  65  96 CALM      30.08S                  
HOWELL         CLOUDY    72  67  86 W3        30.07S                  

CITY           SKY/WX    TMP DP  RH WIND       PRES   REMARKS
JACKSON        MOCLDY    70  66  87 CALM      30.07F                  
LAMBERTVILLE     N/A     69  66  91 CALM      30.06F FOG              
LANSING        FAIR      67  66  97 CALM      30.07F                  
LAPEER         MOCLDY    65  65 100 CALM      30.07F                  
MASON          FAIR      69  68  96 CALM      30.07F                  
MONROE         CLOUDY    66  62  87 CALM      30.06S FOG              
MT. CLEMENS    FAIR      69  69 100 CALM      30.05F                  
PONTIAC        MOCLDY    70  68  93 CALM      30.06F                  
PORT HOPE        N/A     65  62  90 SW5       30.04S                  
PORT HURON     CLOUDY    66  64  94 CALM      30.07F FOG              
TRI CITIES     FAIR      64  59  83 SW3       30.07S                  
MIDLAND        CLOUDY    62  58  89 CALM      30.06F                  
TROY           CLOUDY    74  72  91 CALM      30.08F                  
SAGINAW HB     FAIR      63  61  94 CALM      30.06F                  
$$

SKY/WX - Weather  TMP - Temperature  DP - Dew Point  RH - Relative Humidity
WIND - Wind Direction/Speed PRES - Barometric Pressure VSB - Visibility
WCI - Wind Chill Index E13G22 Wind - East Wind 13 mph/Gusts of 22 mph